Time,TemperatureF,DewpointF,PressureIn,WindDirection,WindDirectionDegrees,WindSpeedMPH,WindSpeedGustMPH,Humidity,HourlyPrecipIn,Conditions,Clouds,dailyrainin,SoftwareType,DateUTC
2013-10-27 00:02:00,47.2,44.1,30.19,NE,47,0.0,0.0,89,0.00,,,0.00,WUHU216DAVISVP2,2013-10-27 07:02:00,
2013-10-27 00:07:00,47.2,44.1,30.20,NE,47,0.0,0.0,89,0.00,,,0.00,WUHU216DAVISVP2,2013-10-27 07:07:00,
2013-10-27 00:12:00,47.2,44.4,30.20,NE,47,0.0,0.0,90,0.00,,,0.00,WUHU216DAVISVP2,2013-10-27 07:12:00,
2013-10-27 00:17:00,47.2,44.4,30.19,NE,46,0.0,0.0,90,0.00,,,0.00,WUHU216DAVISVP2,2013-10-27 07:17:00,
2013-10-27 00:22:00,47.2,44.4,30.18,NE,47,0.0,0.0,90,0.00,,,0.00,WUHU216DAVISVP2,2013-10-27 07:22:00,
2013-10-27 00:27:00,47.2,44.4,30.18,NE,46,0.0,0.0,90,0.00,,,0.00,WUHU216DAVISVP2,2013-10-27 07:27:00,
2013-10-27 00:32:00,47.2,44.4,30.19,NE,47,0.0,0.0,90,0.00,,,0.00,WUHU216DAVISVP2,2013-10-27 07:32:00,
2013-10-27 00:37:00,47.2,44.4,30.19,NE,46,0.0,0.0,90,0.00,,,0.00,WUHU216DAVISVP2,2013-10-27 07:37:00,
2013-10-27 00:42:00,47.2,44.4,30.19,NE,47,0.0,0.0,90,0.00,,,0.00,WUHU216DAVISVP2,2013-10-27 07:42:00,
2013-10-27 00:47:00,47.2,44.4,30.18,NE,46,0.0,0.0,90,0.00,,,0.00,WUHU216DAVISVP2,2013-10-27 07:47:00,
2013-10-27 00:52:00,47.1,44.3,30.17,NE,47,0.0,0.0,90,0.00,,,0.00,WUHU216DAVISVP2,2013-10-27 07:52:00,
2013-10-27 00:57:00,47.1,44.3,30.17,NE,47,0.0,0.0,90,0.00,,,0.00,WUHU216DAVISVP2,2013-10-27 07:57:00,
2013-10-27 01:02:00,47.1,44.3,30.17,NE,46,0.0,0.0,90,0.00,,,0.00,WUHU216DAVISVP2,2013-10-27 08:02:00,
2013-10-27 01:07:00,47.0,44.2,30.16,NE,47,0.0,1.0,90,0.00,,,0.00,WUHU216DAVISVP2,2013-10-27 08:07:00,
2013-10-27 01:12:00,47.0,44.2,30.15,NE,46,0.0,2.0,90,0.00,,,0.00,WUHU216DAVISVP2,2013-10-27 08:12:00,
2013-10-27 01:17:00,47.0,44.2,30.15,NE,47,0.0,2.0,90,0.00,,,0.00,WUHU216DAVISVP2,2013-10-27 08:17:00,
2013-10-27 01:22:00,47.0,44.2,30.15,NE,47,0.0,1.0,90,0.00,,,0.00,WUHU216DAVISVP2,2013-10-27 08:22:00,
2013-10-27 01:27:00,47.0,44.2,30.15,NE,47,0.0,0.0,90,0.00,,,0.00,WUHU216DAVISVP2,2013-10-27 08:27:00,
2013-10-27 01:32:00,46.9,44.1,30.14,NE,47,0.0,0.0,90,0.00,,,0.00,WUHU216DAVISVP2,2013-10-27 08:32:00,
2013-10-27 01:37:00,46.9,44.1,30.14,NE,47,0.0,0.0,90,0.00,,,0.00,WUHU216DAVISVP2,2013-10-27 08:37:00,
2013-10-27 01:42:00,46.9,44.1,30.13,NE,47,0.0,0.0,90,0.00,,,0.00,WUHU216DAVISVP2,2013-10-27 08:42:00,
2013-10-27 01:47:00,46.9,44.1,30.13,NE,46,0.0,2.0,90,0.00,,,0.00,WUHU216DAVISVP2,2013-10-27 08:47:00,
2013-10-27 01:52:00,46.9,44.1,30.14,NE,47,0.0,2.0,90,0.00,,,0.00,WUHU216DAVISVP2,2013-10-27 08:52:00,
2013-10-27 01:57:00,46.9,44.1,30.13,NE,46,0.0,0.0,90,0.00,,,0.00,WUHU216DAVISVP2,2013-10-27 08:57:00,
2013-10-27 02:02:00,46.9,44.1,30.12,NE,47,0.0,0.0,90,0.00,,,0.00,WUHU216DAVISVP2,2013-10-27 09:02:00,
2013-10-27 02:07:00,47.0,44.2,30.12,NE,47,0.0,0.0,90,0.00,,,0.00,WUHU216DAVISVP2,2013-10-27 09:07:00,
2013-10-27 02:12:00,47.0,44.2,30.12,NE,47,0.0,0.0,90,0.00,,,0.00,WUHU216DAVISVP2,2013-10-27 09:12:00,
2013-10-27 02:17:00,47.0,44.5,30.11,NE,47,0.0,1.0,91,0.00,,,0.00,WUHU216DAVISVP2,2013-10-27 09:17:00,
2013-10-27 02:22:00,47.0,44.5,30.10,NE,53,0.0,1.0,91,0.00,,,0.00,WUHU216DAVISVP2,2013-10-27 09:22:00,
2013-10-27 02:27:00,47.0,44.2,30.10,NE,53,0.0,1.0,90,0.00,,,0.00,WUHU216DAVISVP2,2013-10-27 09:27:00,
2013-10-27 02:32:00,47.0,44.2,30.11,NE,53,0.0,0.0,90,0.00,,,0.00,WUHU216DAVISVP2,2013-10-27 09:32:00,
2013-10-27 02:37:00,47.1,44.3,30.12,NE,53,0.0,0.0,90,0.00,,,0.00,WUHU216DAVISVP2,2013-10-27 09:37:00,
2013-10-27 02:42:00,47.2,44.4,30.11,NE,53,0.0,0.0,90,0.00,,,0.00,WUHU216DAVISVP2,2013-10-27 09:42:00,
2013-10-27 02:47:00,47.2,44.4,30.10,NE,53,0.0,0.0,90,0.00,,,0.00,WUHU216DAVISVP2,2013-10-27 09:47:00,
2013-10-27 02:52:00,47.2,44.4,30.10,NE,53,0.0,3.0,90,0.00,,,0.00,WUHU216DAVISVP2,2013-10-27 09:52:00,
2013-10-27 02:57:00,47.1,44.3,30.10,NE,53,0.0,3.0,90,0.00,,,0.00,WUHU216DAVISVP2,2013-10-27 09:57:00,
2013-10-27 03:02:00,47.1,44.0,30.10,NE,53,0.0,0.0,89,0.00,,,0.00,WUHU216DAVISVP2,2013-10-27 10:02:00,
2013-10-27 03:07:00,47.1,44.3,30.09,NE,53,0.0,0.0,90,0.00,,,0.00,WUHU216DAVISVP2,2013-10-27 10:07:00,
2013-10-27 03:12:00,47.0,44.2,30.09,NE,53,0.0,0.0,90,0.00,,,0.00,WUHU216DAVISVP2,2013-10-27 10:12:00,
2013-10-27 03:17:00,47.0,44.2,30.09,NE,53,0.0,3.0,90,0.00,,,0.00,WUHU216DAVISVP2,2013-10-27 10:17:00,
2013-10-27 03:22:00,46.8,44.0,30.09,NE,53,0.0,3.0,90,0.00,,,0.00,WUHU216DAVISVP2,2013-10-27 10:22:00,
2013-10-27 03:27:00,46.6,44.1,30.08,NE,53,0.0,2.0,91,0.00,,,0.00,WUHU216DAVISVP2,2013-10-27 10:27:00,
2013-10-27 03:32:00,46.5,44.0,30.08,NE,53,0.0,0.0,91,0.00,,,0.00,WUHU216DAVISVP2,2013-10-27 10:32:00,
2013-10-27 03:37:00,46.4,44.2,30.08,NE,53,0.0,0.0,92,0.00,,,0.00,WUHU216DAVISVP2,2013-10-27 10:37:00,
2013-10-27 03:42:00,46.3,44.1,30.07,NE,53,0.0,0.0,92,0.00,,,0.00,WUHU216DAVISVP2,2013-10-27 10:42:00,
2013-10-27 03:47:00,46.3,44.1,30.06,NE,53,0.0,1.0,92,0.00,,,0.00,WUHU216DAVISVP2,2013-10-27 10:47:00,
2013-10-27 03:52:00,46.2,44.2,30.06,NE,53,0.0,1.0,93,0.00,,,0.00,WUHU216DAVISVP2,2013-10-27 10:52:00,
2013-10-27 03:57:00,46.2,44.2,30.06,NE,53,0.0,0.0,93,0.00,,,0.00,WUHU216DAVISVP2,2013-10-27 10:57:00,
2013-10-27 04:02:00,46.2,44.2,30.05,NE,53,0.0,0.0,93,0.00,,,0.00,WUHU216DAVISVP2,2013-10-27 11:02:00,
2013-10-27 04:07:00,46.2,44.2,30.05,NE,53,0.0,1.0,93,0.00,,,0.00,WUHU216DAVISVP2,2013-10-27 11:07:00,
2013-10-27 04:12:00,46.1,44.1,30.05,NE,53,0.0,1.0,93,0.00,,,0.00,WUHU216DAVISVP2,2013-10-27 11:12:00,
2013-10-27 04:17:00,46.1,44.1,30.05,NE,54,0.0,0.0,93,0.00,,,0.00,WUHU216DAVISVP2,2013-10-27 11:17:00,
2013-10-27 04:22:00,46.1,44.1,30.05,NE,53,0.0,2.0,93,0.00,,,0.00,WUHU216DAVISVP2,2013-10-27 11:22:00,
2013-10-27 04:27:00,46.0,44.0,30.04,NE,54,0.0,2.0,93,0.00,,,0.00,WUHU216DAVISVP2,2013-10-27 11:27:00,
2013-10-27 04:32:00,46.0,44.0,30.05,NE,53,0.0,0.0,93,0.00,,,0.00,WUHU216DAVISVP2,2013-10-27 11:32:00,
2013-10-27 04:37:00,46.0,44.0,30.04,NE,54,0.0,0.0,93,0.00,,,0.00,WUHU216DAVISVP2,2013-10-27 11:37:00,
2013-10-27 04:42:00,46.0,44.0,30.04,NE,53,0.0,0.0,93,0.00,,,0.00,WUHU216DAVISVP2,2013-10-27 11:42:00,
2013-10-27 04:47:00,46.0,44.0,30.03,NE,54,0.0,0.0,93,0.00,,,0.00,WUHU216DAVISVP2,2013-10-27 11:47:00,
2013-10-27 04:52:00,45.9,43.9,30.02,NE,54,0.0,0.0,93,0.00,,,0.00,WUHU216DAVISVP2,2013-10-27 11:52:00,
2013-10-27 04:57:00,45.9,43.9,30.02,NE,54,0.0,0.0,93,0.00,,,0.00,WUHU216DAVISVP2,2013-10-27 11:57:00,
2013-10-27 05:02:00,45.9,43.9,30.02,NE,53,0.0,0.0,93,0.00,,,0.00,WUHU216DAVISVP2,2013-10-27 12:02:00,
2013-10-27 05:07:00,45.9,43.9,30.01,NE,54,0.0,0.0,93,0.00,,,0.00,WUHU216DAVISVP2,2013-10-27 12:07:00,
2013-10-27 05:12:00,45.9,43.9,30.01,NE,53,0.0,0.0,93,0.00,,,0.00,WUHU216DAVISVP2,2013-10-27 12:12:00,
2013-10-27 05:17:00,45.8,43.8,30.01,NE,54,0.0,0.0,93,0.00,,,0.00,WUHU216DAVISVP2,2013-10-27 12:17:00,
2013-10-27 05:22:00,45.8,43.8,30.01,NE,53,0.0,0.0,93,0.00,,,0.00,WUHU216DAVISVP2,2013-10-27 12:22:00,
2013-10-27 05:27:00,45.8,43.8,30.01,NE,55,0.0,1.0,93,0.00,,,0.00,WUHU216DAVISVP2,2013-10-27 12:27:00,
2013-10-27 05:31:00,45.8,43.8,30.00,ENE,63,0.0,1.0,93,0.00,,,0.00,WUHU216DAVISVP2,2013-10-27 12:31:00,
2013-10-27 05:36:00,45.7,43.7,30.00,East,83,3.0,4.0,93,0.00,,,0.00,WUHU216DAVISVP2,2013-10-27 12:36:00,
2013-10-27 05:41:00,45.6,43.6,30.00,East,83,0.0,4.0,93,0.00,,,0.00,WUHU216DAVISVP2,2013-10-27 12:41:00,
2013-10-27 05:46:00,45.5,43.5,30.00,East,83,0.0,4.0,93,0.00,,,0.00,WUHU216DAVISVP2,2013-10-27 12:46:00,
2013-10-27 05:51:00,45.6,43.6,30.00,East,83,0.0,0.0,93,0.00,,,0.00,WUHU216DAVISVP2,2013-10-27 12:51:00,
2013-10-27 05:56:00,45.5,43.5,30.00,East,83,0.0,0.0,93,0.00,,,0.00,WUHU216DAVISVP2,2013-10-27 12:56:00,
2013-10-27 06:01:00,45.5,43.5,30.01,East,83,0.0,0.0,93,0.00,,,0.00,WUHU216DAVISVP2,2013-10-27 13:01:00,
2013-10-27 06:06:00,45.6,43.6,30.01,East,83,0.0,0.0,93,0.00,,,0.00,WUHU216DAVISVP2,2013-10-27 13:06:00,
2013-10-27 06:11:00,45.6,43.6,30.01,East,83,0.0,0.0,93,0.00,,,0.00,WUHU216DAVISVP2,2013-10-27 13:11:00,
2013-10-27 06:16:00,45.6,43.6,30.01,ENE,71,0.0,4.0,93,0.00,,,0.00,WUHU216DAVISVP2,2013-10-27 13:16:00,
2013-10-27 06:21:00,45.6,43.6,30.00,ENE,71,0.0,4.0,93,0.00,,,0.00,WUHU216DAVISVP2,2013-10-27 13:21:00,
2013-10-27 06:26:00,45.6,43.6,30.00,ENE,71,0.0,0.0,93,0.01,,,0.01,WUHU216DAVISVP2,2013-10-27 13:26:00,
2013-10-27 06:31:00,45.5,43.5,30.00,ENE,71,0.0,0.0,93,0.01,,,0.01,WUHU216DAVISVP2,2013-10-27 13:31:00,
2013-10-27 06:36:00,45.4,43.7,30.00,ENE,71,0.0,0.0,94,0.01,,,0.01,WUHU216DAVISVP2,2013-10-27 13:36:00,
2013-10-27 06:41:00,45.4,43.7,29.99,ENE,71,0.0,0.0,94,0.01,,,0.01,WUHU216DAVISVP2,2013-10-27 13:41:00,
2013-10-27 06:46:00,45.4,43.7,29.99,ENE,71,0.0,0.0,94,0.01,,,0.01,WUHU216DAVISVP2,2013-10-27 13:46:00,
2013-10-27 06:51:00,45.3,43.6,29.98,ENE,71,0.0,0.0,94,0.02,,,0.02,WUHU216DAVISVP2,2013-10-27 13:51:00,
2013-10-27 06:56:00,45.3,43.6,29.98,ENE,71,0.0,0.0,94,0.02,,,0.02,WUHU216DAVISVP2,2013-10-27 13:56:00,
2013-10-27 07:01:00,45.3,43.6,29.98,ENE,71,0.0,0.0,94,0.02,,,0.02,WUHU216DAVISVP2,2013-10-27 14:01:00,
2013-10-27 07:06:00,45.2,43.5,29.97,ENE,71,0.0,0.0,94,0.02,,,0.02,WUHU216DAVISVP2,2013-10-27 14:06:00,
2013-10-27 07:11:00,45.2,43.5,29.97,ENE,71,0.0,0.0,94,0.02,,,0.02,WUHU216DAVISVP2,2013-10-27 14:11:00,
2013-10-27 07:16:00,45.2,43.5,29.97,ENE,71,0.0,3.0,94,0.03,,,0.03,WUHU216DAVISVP2,2013-10-27 14:16:00,
2013-10-27 07:21:00,45.1,43.4,29.97,ENE,71,0.0,3.0,94,0.03,,,0.03,WUHU216DAVISVP2,2013-10-27 14:21:00,
2013-10-27 07:26:00,45.1,43.4,29.98,ENE,71,0.0,0.0,94,0.03,,,0.04,WUHU216DAVISVP2,2013-10-27 14:26:00,
2013-10-27 07:31:00,45.0,43.3,29.97,ENE,71,0.0,0.0,94,0.04,,,0.05,WUHU216DAVISVP2,2013-10-27 14:31:00,
2013-10-27 07:36:00,45.0,43.3,29.97,ENE,71,0.0,0.0,94,0.05,,,0.06,WUHU216DAVISVP2,2013-10-27 14:36:00,
2013-10-27 07:41:00,45.0,43.3,29.96,ENE,71,0.0,0.0,94,0.05,,,0.06,WUHU216DAVISVP2,2013-10-27 14:41:00,
2013-10-27 07:46:00,45.0,43.3,29.97,ENE,71,0.0,0.0,94,0.06,,,0.07,WUHU216DAVISVP2,2013-10-27 14:46:00,
2013-10-27 07:51:00,45.0,43.3,29.97,ENE,71,0.0,0.0,94,0.06,,,0.08,WUHU216DAVISVP2,2013-10-27 14:51:00,
2013-10-27 07:56:00,45.0,43.3,29.97,ENE,71,0.0,0.0,94,0.06,,,0.08,WUHU216DAVISVP2,2013-10-27 14:56:00,
2013-10-27 08:01:00,45.2,43.5,29.97,ENE,71,0.0,0.0,94,0.07,,,0.09,WUHU216DAVISVP2,2013-10-27 15:01:00,
2013-10-27 08:06:00,45.2,43.5,29.96,ENE,71,0.0,2.0,94,0.08,,,0.10,WUHU216DAVISVP2,2013-10-27 15:06:00,
2013-10-27 08:11:00,45.1,43.4,29.95,ENE,71,0.0,2.0,94,0.08,,,0.10,WUHU216DAVISVP2,2013-10-27 15:11:00,
2013-10-27 08:16:00,45.1,43.4,29.95,ENE,73,0.0,3.0,94,0.07,,,0.10,WUHU216DAVISVP2,2013-10-27 15:16:00,
2013-10-27 08:21:00,45.1,43.4,29.95,ENE,73,0.0,3.0,94,0.07,,,0.10,WUHU216DAVISVP2,2013-10-27 15:21:00,
2013-10-27 08:26:00,45.1,43.4,29.95,ENE,73,0.0,2.0,94,0.06,,,0.10,WUHU216DAVISVP2,2013-10-27 15:26:00,
2013-10-27 08:31:00,45.1,43.4,29.95,ENE,73,0.0,1.0,94,0.05,,,0.10,WUHU216DAVISVP2,2013-10-27 15:31:00,
2013-10-27 08:36:00,45.0,43.3,29.95,ENE,73,0.0,1.0,94,0.04,,,0.10,WUHU216DAVISVP2,2013-10-27 15:36:00,
2013-10-27 08:41:00,45.1,43.7,29.95,ENE,72,0.0,0.0,95,0.04,,,0.10,WUHU216DAVISVP2,2013-10-27 15:41:00,
2013-10-27 08:46:00,45.0,43.6,29.95,ENE,74,0.0,0.0,95,0.03,,,0.10,WUHU216DAVISVP2,2013-10-27 15:46:00,
2013-10-27 08:51:00,45.1,43.7,29.94,ENE,74,0.0,0.0,95,0.02,,,0.10,WUHU216DAVISVP2,2013-10-27 15:51:00,
2013-10-27 08:56:00,45.1,43.7,29.93,ENE,74,0.0,0.0,95,0.02,,,0.10,WUHU216DAVISVP2,2013-10-27 15:56:00,
2013-10-27 09:01:00,45.0,43.6,29.94,ENE,74,0.0,0.0,95,0.01,,,0.10,WUHU216DAVISVP2,2013-10-27 16:01:00,
2013-10-27 09:06:00,45.0,43.6,29.94,ENE,74,0.0,0.0,95,0.00,,,0.10,WUHU216DAVISVP2,2013-10-27 16:06:00,
2013-10-27 09:11:00,45.1,43.7,29.94,ENE,74,0.0,0.0,95,0.00,,,0.10,WUHU216DAVISVP2,2013-10-27 16:11:00,
2013-10-27 09:16:00,45.2,43.8,29.94,ENE,74,0.0,0.0,95,0.00,,,0.10,WUHU216DAVISVP2,2013-10-27 16:16:00,
2013-10-27 09:21:00,45.5,44.1,29.94,ENE,74,0.0,0.0,95,0.00,,,0.10,WUHU216DAVISVP2,2013-10-27 16:21:00,
2013-10-27 09:26:00,45.6,44.2,29.94,ENE,74,0.0,0.0,95,0.00,,,0.10,WUHU216DAVISVP2,2013-10-27 16:26:00,
2013-10-27 09:31:00,45.6,44.2,29.94,ENE,74,0.0,0.0,95,0.00,,,0.10,WUHU216DAVISVP2,2013-10-27 16:31:00,
2013-10-27 09:36:00,45.7,44.3,29.94,ENE,74,0.0,0.0,95,0.00,,,0.10,WUHU216DAVISVP2,2013-10-27 16:36:00,
2013-10-27 09:41:00,45.9,44.5,29.94,ENE,74,0.0,0.0,95,0.00,,,0.10,WUHU216DAVISVP2,2013-10-27 16:41:00,
2013-10-27 09:46:00,46.0,44.6,29.94,ENE,74,0.0,0.0,95,0.00,,,0.10,WUHU216DAVISVP2,2013-10-27 16:46:00,
2013-10-27 09:51:00,46.0,44.6,29.94,ENE,74,0.0,0.0,95,0.00,,,0.10,WUHU216DAVISVP2,2013-10-27 16:51:00,
2013-10-27 09:56:00,46.0,44.6,29.95,ENE,74,0.0,3.0,95,0.01,,,0.11,WUHU216DAVISVP2,2013-10-27 16:56:00,
2013-10-27 10:01:00,46.0,44.6,29.95,ENE,74,0.0,3.0,95,0.01,,,0.11,WUHU216DAVISVP2,2013-10-27 17:01:00,
2013-10-27 10:06:00,45.9,44.5,29.95,ENE,72,0.0,1.0,95,0.01,,,0.11,WUHU216DAVISVP2,2013-10-27 17:06:00,
2013-10-27 10:11:00,46.0,44.6,29.94,ENE,72,0.0,1.0,95,0.02,,,0.12,WUHU216DAVISVP2,2013-10-27 17:11:00,
2013-10-27 10:16:00,45.9,44.5,29.94,ENE,72,0.0,0.0,95,0.02,,,0.12,WUHU216DAVISVP2,2013-10-27 17:16:00,
2013-10-27 10:21:00,45.9,44.5,29.94,ENE,72,0.0,0.0,95,0.02,,,0.12,WUHU216DAVISVP2,2013-10-27 17:21:00,
2013-10-27 10:26:00,45.9,44.5,29.94,ENE,72,0.0,0.0,95,0.02,,,0.12,WUHU216DAVISVP2,2013-10-27 17:26:00,
2013-10-27 10:31:00,46.0,44.6,29.94,NE,53,0.0,4.0,95,0.02,,,0.12,WUHU216DAVISVP2,2013-10-27 17:31:00,
2013-10-27 10:36:00,46.0,44.6,29.94,NE,34,3.0,4.0,95,0.02,,,0.12,WUHU216DAVISVP2,2013-10-27 17:36:00,
2013-10-27 10:41:00,46.0,44.6,29.94,North,355,0.0,6.0,95,0.02,,,0.12,WUHU216DAVISVP2,2013-10-27 17:41:00,
2013-10-27 10:46:00,46.1,44.7,29.94,North,351,0.0,6.0,95,0.03,,,0.13,WUHU216DAVISVP2,2013-10-27 17:46:00,
2013-10-27 10:51:00,46.2,44.8,29.94,NNW,340,0.0,10.0,95,0.03,,,0.13,WUHU216DAVISVP2,2013-10-27 17:51:00,
2013-10-27 10:56:00,46.3,44.9,29.95,NNW,338,0.0,10.0,95,0.02,,,0.13,WUHU216DAVISVP2,2013-10-27 17:56:00,
2013-10-27 11:01:00,46.4,45.0,29.95,NNW,329,2.0,6.0,95,0.02,,,0.13,WUHU216DAVISVP2,2013-10-27 18:01:00,
2013-10-27 11:06:00,46.5,45.1,29.95,NNW,345,2.0,6.0,95,0.02,,,0.13,WUHU216DAVISVP2,2013-10-27 18:06:00,
2013-10-27 11:11:00,46.7,45.3,29.94,NW,325,4.0,12.0,95,0.01,,,0.13,WUHU216DAVISVP2,2013-10-27 18:11:00,
2013-10-27 11:16:00,46.8,45.4,29.94,NNW,344,4.0,12.0,95,0.01,,,0.13,WUHU216DAVISVP2,2013-10-27 18:16:00,
2013-10-27 11:21:00,47.0,45.6,29.94,NNW,330,3.0,12.0,95,0.01,,,0.13,WUHU216DAVISVP2,2013-10-27 18:21:00,
2013-10-27 11:26:00,47.2,45.8,29.94,NW,322,6.0,11.0,95,0.01,,,0.13,WUHU216DAVISVP2,2013-10-27 18:26:00,
2013-10-27 11:31:00,47.3,45.9,29.94,NNW,338,4.0,10.0,95,0.01,,,0.13,WUHU216DAVISVP2,2013-10-27 18:31:00,
2013-10-27 11:36:00,47.4,46.0,29.94,NNW,337,0.0,9.0,95,0.01,,,0.13,WUHU216DAVISVP2,2013-10-27 18:36:00,
2013-10-27 11:41:00,47.6,46.2,29.95,North,355,0.0,9.0,95,0.01,,,0.13,WUHU216DAVISVP2,2013-10-27 18:41:00,
2013-10-27 11:46:00,47.7,46.3,29.95,NNW,346,0.0,6.0,95,0.00,,,0.13,WUHU216DAVISVP2,2013-10-27 18:46:00,
2013-10-27 11:51:00,47.8,46.4,29.95,NNW,344,2.0,6.0,95,0.00,,,0.13,WUHU216DAVISVP2,2013-10-27 18:51:00,
2013-10-27 11:56:00,47.8,46.4,29.94,North,9,4.0,9.0,95,0.00,,,0.13,WUHU216DAVISVP2,2013-10-27 18:56:00,
2013-10-27 12:01:00,47.9,46.5,29.94,NNW,340,6.0,10.0,95,0.00,,,0.13,WUHU216DAVISVP2,2013-10-27 19:01:00,
2013-10-27 12:06:00,47.9,46.5,29.94,NNW,340,0.0,11.0,95,0.00,,,0.13,WUHU216DAVISVP2,2013-10-27 19:06:00,
2013-10-27 12:11:00,48.1,46.7,29.94,North,360,1.0,11.0,95,0.00,,,0.13,WUHU216DAVISVP2,2013-10-27 19:11:00,
2013-10-27 12:16:00,48.3,46.6,29.94,North,355,5.0,11.0,94,0.00,,,0.13,WUHU216DAVISVP2,2013-10-27 19:16:00,
2013-10-27 12:21:00,48.7,47.3,29.94,NNW,331,12.0,12.0,95,0.00,,,0.13,WUHU216DAVISVP2,2013-10-27 19:21:00,
2013-10-27 12:22:00,48.7,47.0,29.94,NNW,346,4.0,12.0,94,0.00,,,0.13,WUHU216DAVISVP2,2013-10-27 19:22:00,
2013-10-27 12:35:00,49.2,47.2,29.94,NNW,346,3.0,14.0,93,0.00,,,0.13,WUHU216DAVISVP2,2013-10-27 19:35:00,
2013-10-27 12:40:00,49.3,47.3,29.93,North,355,5.0,11.0,93,0.00,,,0.13,WUHU216DAVISVP2,2013-10-27 19:40:00,
2013-10-27 12:45:00,49.3,47.0,29.93,North,360,3.0,14.0,92,0.00,,,0.13,WUHU216DAVISVP2,2013-10-27 19:45:00,
2013-10-27 12:50:00,49.3,46.7,29.93,North,360,5.0,18.0,91,0.00,,,0.13,WUHU216DAVISVP2,2013-10-27 19:50:00,
2013-10-27 12:55:00,49.3,46.7,29.93,NNW,328,18.0,18.0,91,0.00,,,0.13,WUHU216DAVISVP2,2013-10-27 19:55:00,
2013-10-27 13:00:00,49.6,47.0,29.93,NNW,340,4.0,18.0,91,0.00,,,0.13,WUHU216DAVISVP2,2013-10-27 20:00:00,
2013-10-27 13:05:00,49.8,47.2,29.92,North,360,4.0,16.0,91,0.00,,,0.13,WUHU216DAVISVP2,2013-10-27 20:05:00,
2013-10-27 13:11:00,50.0,47.4,29.92,NNW,338,5.0,15.0,91,0.00,,,0.13,WUHU216DAVISVP2,2013-10-27 20:11:00,
2013-10-27 13:16:00,50.1,47.5,29.92,North,360,0.0,10.0,91,0.00,,,0.13,WUHU216DAVISVP2,2013-10-27 20:16:00,
2013-10-27 13:21:00,50.2,47.3,29.92,NNW,336,0.0,10.0,90,0.00,,,0.13,WUHU216DAVISVP2,2013-10-27 20:21:00,
2013-10-27 13:26:00,50.2,47.3,29.92,North,360,5.0,16.0,90,0.00,,,0.13,WUHU216DAVISVP2,2013-10-27 20:26:00,
2013-10-27 13:31:00,50.3,47.1,29.91,NNW,330,0.0,16.0,89,0.00,,,0.13,WUHU216DAVISVP2,2013-10-27 20:31:00,
2013-10-27 13:36:00,50.5,47.3,29.91,NW,313,4.0,16.0,89,0.00,,,0.13,WUHU216DAVISVP2,2013-10-27 20:36:00,
2013-10-27 13:41:00,50.7,47.2,29.91,NNE,26,13.0,16.0,88,0.00,,,0.13,WUHU216DAVISVP2,2013-10-27 20:41:00,
2013-10-27 13:45:00,50.9,47.4,29.91,NNW,348,3.0,13.0,88,0.00,,,0.13,WUHU216DAVISVP2,2013-10-27 20:45:00,
2013-10-27 13:50:00,51.0,47.2,29.91,NNW,346,3.0,13.0,87,0.00,,,0.13,WUHU216DAVISVP2,2013-10-27 20:50:00,
2013-10-27 13:55:00,51.2,47.4,29.91,NNW,348,3.0,13.0,87,0.00,,,0.13,WUHU216DAVISVP2,2013-10-27 20:55:00,
2013-10-27 14:00:00,51.4,47.6,29.91,NNE,26,3.0,17.0,87,0.00,,,0.13,WUHU216DAVISVP2,2013-10-27 21:00:00,
2013-10-27 14:05:00,51.6,48.1,29.91,NW,321,6.0,17.0,88,0.00,,,0.13,WUHU216DAVISVP2,2013-10-27 21:05:00,
2013-10-27 14:11:00,51.8,48.0,29.91,NNW,344,1.0,11.0,87,0.00,,,0.13,WUHU216DAVISVP2,2013-10-27 21:11:00,
2013-10-27 14:16:00,52.1,48.0,29.91,NE,43,2.0,11.0,86,0.00,,,0.13,WUHU216DAVISVP2,2013-10-27 21:16:00,
2013-10-27 14:21:00,52.1,48.0,29.91,North,5,0.0,10.0,86,0.00,,,0.13,WUHU216DAVISVP2,2013-10-27 21:21:00,
2013-10-27 14:26:00,52.3,48.2,29.91,NW,318,0.0,10.0,86,0.00,,,0.13,WUHU216DAVISVP2,2013-10-27 21:26:00,
2013-10-27 14:31:00,52.4,48.6,29.91,NW,312,3.0,10.0,87,0.00,,,0.13,WUHU216DAVISVP2,2013-10-27 21:31:00,
2013-10-27 14:36:00,52.6,48.5,29.91,NW,314,0.0,10.0,86,0.00,,,0.13,WUHU216DAVISVP2,2013-10-27 21:36:00,
2013-10-27 14:41:00,52.7,48.3,29.90,NNW,345,0.0,15.0,85,0.00,,,0.13,WUHU216DAVISVP2,2013-10-27 21:41:00,
2013-10-27 14:46:00,52.8,48.4,29.91,NNW,342,6.0,15.0,85,0.00,,,0.13,WUHU216DAVISVP2,2013-10-27 21:46:00,
2013-10-27 14:51:00,52.9,48.2,29.91,NNW,331,0.0,7.0,84,0.00,,,0.13,WUHU216DAVISVP2,2013-10-27 21:51:00,
2013-10-27 14:56:00,53.0,48.0,29.90,NNE,14,4.0,16.0,83,0.00,,,0.13,WUHU216DAVISVP2,2013-10-27 21:56:00,
2013-10-27 15:01:00,53.2,47.9,29.90,NNW,344,3.0,16.0,82,0.00,,,0.13,WUHU216DAVISVP2,2013-10-27 22:01:00,
2013-10-27 15:06:00,53.7,48.4,29.90,North,360,3.0,12.0,82,0.00,,,0.13,WUHU216DAVISVP2,2013-10-27 22:06:00,
2013-10-27 15:11:00,54.1,48.4,29.90,NNW,342,11.0,16.0,81,0.00,,,0.13,WUHU216DAVISVP2,2013-10-27 22:11:00,
2013-10-27 15:16:00,54.4,48.7,29.90,NNW,342,6.0,16.0,81,0.00,,,0.13,WUHU216DAVISVP2,2013-10-27 22:16:00,
2013-10-27 15:21:00,54.7,48.4,29.90,NNW,340,3.0,12.0,79,0.00,,,0.13,WUHU216DAVISVP2,2013-10-27 22:21:00,
2013-10-27 15:26:00,54.9,48.2,29.90,NW,318,3.0,13.0,78,0.00,,,0.13,WUHU216DAVISVP2,2013-10-27 22:26:00,
2013-10-27 15:31:00,55.0,48.3,29.90,NNW,335,0.0,13.0,78,0.00,,,0.13,WUHU216DAVISVP2,2013-10-27 22:31:00,
2013-10-27 15:36:00,55.2,48.5,29.90,NNW,341,0.0,10.0,78,0.00,,,0.13,WUHU216DAVISVP2,2013-10-27 22:36:00,
2013-10-27 15:41:00,55.4,48.0,29.90,North,351,5.0,15.0,76,0.00,,,0.13,WUHU216DAVISVP2,2013-10-27 22:41:00,
2013-10-27 15:46:00,55.5,47.8,29.90,NW,314,5.0,15.0,75,0.00,,,0.13,WUHU216DAVISVP2,2013-10-27 22:46:00,
2013-10-27 15:51:00,55.4,48.0,29.90,NNW,327,9.0,14.0,76,0.00,,,0.13,WUHU216DAVISVP2,2013-10-27 22:51:00,
2013-10-27 15:56:00,55.3,48.3,29.90,WNW,303,4.0,12.0,77,0.00,,,0.13,WUHU216DAVISVP2,2013-10-27 22:56:00,
2013-10-27 16:01:00,55.1,47.8,29.90,NW,324,0.0,9.0,76,0.00,,,0.13,WUHU216DAVISVP2,2013-10-27 23:01:00,
2013-10-27 16:06:00,54.9,47.9,29.90,NW,321,11.0,11.0,77,0.00,,,0.13,WUHU216DAVISVP2,2013-10-27 23:06:00,
2013-10-27 16:11:00,54.6,47.6,29.90,NNW,346,8.0,14.0,77,0.00,,,0.13,WUHU216DAVISVP2,2013-10-27 23:11:00,
2013-10-27 16:16:00,54.4,47.7,29.90,WNW,286,5.0,15.0,78,0.00,,,0.13,WUHU216DAVISVP2,2013-10-27 23:16:00,
2013-10-27 16:21:00,54.1,47.5,29.90,NNW,331,0.0,15.0,78,0.00,,,0.13,WUHU216DAVISVP2,2013-10-27 23:21:00,
2013-10-27 16:26:00,54.0,47.4,29.90,North,355,4.0,11.0,78,0.00,,,0.13,WUHU216DAVISVP2,2013-10-27 23:26:00,
2013-10-27 16:31:00,53.9,47.3,29.90,NNW,330,3.0,12.0,78,0.00,,,0.13,WUHU216DAVISVP2,2013-10-27 23:31:00,
2013-10-27 16:36:00,53.7,47.4,29.90,WNW,291,2.0,15.0,79,0.00,,,0.13,WUHU216DAVISVP2,2013-10-27 23:36:00,
2013-10-27 16:41:00,53.6,47.3,29.91,NNW,348,9.0,15.0,79,0.00,,,0.13,WUHU216DAVISVP2,2013-10-27 23:41:00,
2013-10-27 16:46:00,53.3,46.7,29.91,North,355,6.0,16.0,78,0.00,,,0.13,WUHU216DAVISVP2,2013-10-27 23:46:00,
2013-10-27 16:51:00,53.2,46.6,29.91,NNW,329,5.0,16.0,78,0.00,,,0.13,WUHU216DAVISVP2,2013-10-27 23:51:00,
2013-10-27 16:56:00,53.1,46.5,29.90,NNW,346,6.0,14.0,78,0.00,,,0.13,WUHU216DAVISVP2,2013-10-27 23:56:00,
2013-10-27 17:01:00,53.0,46.4,29.91,NW,323,1.0,14.0,78,0.00,,,0.13,WUHU216DAVISVP2,2013-10-28 00:01:00,
2013-10-27 17:06:00,52.8,46.5,29.91,NNW,338,5.0,13.0,79,0.00,,,0.13,WUHU216DAVISVP2,2013-10-28 00:06:00,
2013-10-27 17:11:00,52.7,46.1,29.91,North,350,6.0,13.0,78,0.00,,,0.13,WUHU216DAVISVP2,2013-10-28 00:11:00,
2013-10-27 17:16:00,52.6,46.3,29.91,NNE,16,4.0,10.0,79,0.00,,,0.13,WUHU216DAVISVP2,2013-10-28 00:16:00,
2013-10-27 17:21:00,52.6,46.3,29.91,NW,319,0.0,10.0,79,0.00,,,0.13,WUHU216DAVISVP2,2013-10-28 00:21:00,
2013-10-27 17:26:00,52.5,46.2,29.91,North,350,0.0,8.0,79,0.00,,,0.13,WUHU216DAVISVP2,2013-10-28 00:26:00,
2013-10-27 17:31:00,52.3,46.0,29.91,NNW,344,0.0,8.0,79,0.00,,,0.13,WUHU216DAVISVP2,2013-10-28 00:31:00,
2013-10-27 17:36:00,52.2,45.9,29.91,NNW,348,0.0,7.0,79,0.00,,,0.13,WUHU216DAVISVP2,2013-10-28 00:36:00,
2013-10-27 17:41:00,52.1,45.8,29.91,North,355,0.0,6.0,79,0.00,,,0.13,WUHU216DAVISVP2,2013-10-28 00:41:00,
2013-10-27 17:46:00,52.0,45.7,29.91,North,350,0.0,5.0,79,0.00,,,0.13,WUHU216DAVISVP2,2013-10-28 00:46:00,
2013-10-27 17:51:00,51.9,45.6,29.91,NNW,339,0.0,10.0,79,0.00,,,0.13,WUHU216DAVISVP2,2013-10-28 00:51:00,
2013-10-27 17:56:00,51.8,45.5,29.91,North,360,0.0,10.0,79,0.00,,,0.13,WUHU216DAVISVP2,2013-10-28 00:56:00,
2013-10-27 18:01:00,51.6,45.3,29.91,North,360,0.0,6.0,79,0.00,,,0.13,WUHU216DAVISVP2,2013-10-28 01:01:00,
2013-10-27 18:06:00,51.5,45.6,29.91,North,360,0.0,2.0,80,0.00,,,0.13,WUHU216DAVISVP2,2013-10-28 01:06:00,
2013-10-27 18:11:00,51.3,45.4,29.91,North,360,0.0,2.0,80,0.00,,,0.13,WUHU216DAVISVP2,2013-10-28 01:11:00,
2013-10-27 18:16:00,51.1,45.2,29.92,North,360,0.0,0.0,80,0.00,,,0.13,WUHU216DAVISVP2,2013-10-28 01:16:00,
2013-10-27 18:21:00,50.9,45.0,29.92,North,360,0.0,1.0,80,0.00,,,0.13,WUHU216DAVISVP2,2013-10-28 01:21:00,
2013-10-27 18:26:00,50.6,45.0,29.92,North,10,0.0,1.0,81,0.00,,,0.13,WUHU216DAVISVP2,2013-10-28 01:26:00,
2013-10-27 18:31:00,50.6,45.0,29.91,North,360,0.0,3.0,81,0.00,,,0.13,WUHU216DAVISVP2,2013-10-28 01:31:00,
2013-10-27 18:36:00,50.6,45.0,29.92,North,360,0.0,3.0,81,0.00,,,0.13,WUHU216DAVISVP2,2013-10-28 01:36:00,
2013-10-27 18:41:00,50.4,44.8,29.92,North,360,0.0,0.0,81,0.00,,,0.13,WUHU216DAVISVP2,2013-10-28 01:41:00,
2013-10-27 18:46:00,50.3,44.7,29.92,North,360,0.0,0.0,81,0.00,,,0.13,WUHU216DAVISVP2,2013-10-28 01:46:00,
2013-10-27 18:51:00,50.2,44.6,29.92,North,360,0.0,0.0,81,0.00,,,0.13,WUHU216DAVISVP2,2013-10-28 01:51:00,
2013-10-27 18:56:00,50.1,44.5,29.91,North,360,0.0,1.0,81,0.00,,,0.13,WUHU216DAVISVP2,2013-10-28 01:56:00,
2013-10-27 19:01:00,50.1,44.5,29.92,North,360,0.0,1.0,81,0.00,,,0.13,WUHU216DAVISVP2,2013-10-28 02:01:00,
2013-10-27 19:06:00,49.9,44.3,29.91,North,360,0.0,0.0,81,0.00,,,0.13,WUHU216DAVISVP2,2013-10-28 02:06:00,
2013-10-27 19:11:00,49.8,44.2,29.92,North,360,0.0,0.0,81,0.00,,,0.13,WUHU216DAVISVP2,2013-10-28 02:11:00,
2013-10-27 19:16:00,49.8,44.5,29.92,North,360,0.0,0.0,82,0.00,,,0.13,WUHU216DAVISVP2,2013-10-28 02:16:00,
2013-10-27 19:21:00,49.7,44.4,29.92,North,360,0.0,0.0,82,0.00,,,0.13,WUHU216DAVISVP2,2013-10-28 02:21:00,
2013-10-27 19:26:00,49.4,44.5,29.92,North,360,0.0,0.0,83,0.00,,,0.13,WUHU216DAVISVP2,2013-10-28 02:26:00,
2013-10-27 19:31:00,49.2,44.3,29.92,North,360,0.0,0.0,83,0.00,,,0.13,WUHU216DAVISVP2,2013-10-28 02:31:00,
2013-10-27 19:36:00,49.2,44.9,29.92,North,360,0.0,0.0,85,0.00,,,0.13,WUHU216DAVISVP2,2013-10-28 02:36:00,
2013-10-27 19:41:00,49.1,44.8,29.92,North,360,0.0,0.0,85,0.00,,,0.13,WUHU216DAVISVP2,2013-10-28 02:41:00,
2013-10-27 19:46:00,48.9,44.6,29.92,North,360,0.0,0.0,85,0.00,,,0.13,WUHU216DAVISVP2,2013-10-28 02:46:00,
2013-10-27 19:51:00,48.5,44.5,29.92,North,360,0.0,0.0,86,0.00,,,0.13,WUHU216DAVISVP2,2013-10-28 02:51:00,
2013-10-27 19:56:00,48.5,44.8,29.92,North,360,0.0,0.0,87,0.00,,,0.13,WUHU216DAVISVP2,2013-10-28 02:56:00,
2013-10-27 20:01:00,48.3,44.6,29.92,North,360,0.0,0.0,87,0.00,,,0.13,WUHU216DAVISVP2,2013-10-28 03:01:00,
2013-10-27 20:06:00,48.2,44.8,29.93,North,360,0.0,0.0,88,0.00,,,0.13,WUHU216DAVISVP2,2013-10-28 03:06:00,
2013-10-27 20:11:00,48.0,44.6,29.92,North,360,0.0,0.0,88,0.00,,,0.13,WUHU216DAVISVP2,2013-10-28 03:11:00,
2013-10-27 20:16:00,47.9,44.5,29.93,North,360,0.0,0.0,88,0.00,,,0.13,WUHU216DAVISVP2,2013-10-28 03:16:00,
2013-10-27 20:21:00,47.9,44.5,29.92,North,360,0.0,0.0,88,0.00,,,0.13,WUHU216DAVISVP2,2013-10-28 03:21:00,
2013-10-27 20:26:00,47.7,44.3,29.92,North,360,0.0,0.0,88,0.00,,,0.13,WUHU216DAVISVP2,2013-10-28 03:26:00,
2013-10-27 20:31:00,47.7,44.3,29.92,North,360,0.0,0.0,88,0.00,,,0.13,WUHU216DAVISVP2,2013-10-28 03:31:00,
2013-10-27 20:36:00,47.7,44.3,29.92,North,360,0.0,0.0,88,0.00,,,0.13,WUHU216DAVISVP2,2013-10-28 03:36:00,
2013-10-27 20:41:00,47.8,44.4,29.92,North,360,0.0,0.0,88,0.00,,,0.13,WUHU216DAVISVP2,2013-10-28 03:41:00,
2013-10-27 20:46:00,47.9,44.5,29.93,North,360,0.0,0.0,88,0.00,,,0.13,WUHU216DAVISVP2,2013-10-28 03:46:00,
2013-10-27 20:51:00,48.0,44.6,29.93,North,360,0.0,0.0,88,0.00,,,0.13,WUHU216DAVISVP2,2013-10-28 03:51:00,
2013-10-27 20:56:00,48.0,44.3,29.93,North,360,0.0,0.0,87,0.00,,,0.13,WUHU216DAVISVP2,2013-10-28 03:56:00,
2013-10-27 21:01:00,48.1,44.7,29.93,North,360,0.0,0.0,88,0.00,,,0.13,WUHU216DAVISVP2,2013-10-28 04:01:00,
2013-10-27 21:06:00,48.0,44.6,29.93,North,360,0.0,0.0,88,0.00,,,0.13,WUHU216DAVISVP2,2013-10-28 04:06:00,
2013-10-27 21:11:00,48.0,44.9,29.93,North,360,0.0,0.0,89,0.00,,,0.13,WUHU216DAVISVP2,2013-10-28 04:11:00,
2013-10-27 21:16:00,47.9,44.8,29.92,North,360,0.0,0.0,89,0.00,,,0.13,WUHU216DAVISVP2,2013-10-28 04:16:00,
2013-10-27 21:21:00,47.8,44.7,29.92,North,360,0.0,0.0,89,0.00,,,0.13,WUHU216DAVISVP2,2013-10-28 04:21:00,
2013-10-27 21:26:00,47.3,43.9,29.92,North,360,0.0,0.0,88,0.00,,,0.13,WUHU216DAVISVP2,2013-10-28 04:26:00,
2013-10-27 21:31:00,47.1,44.0,29.93,North,360,0.0,0.0,89,0.00,,,0.13,WUHU216DAVISVP2,2013-10-28 04:31:00,
2013-10-27 21:36:00,47.2,44.1,29.93,North,360,0.0,1.0,89,0.00,,,0.13,WUHU216DAVISVP2,2013-10-28 04:36:00,
2013-10-27 21:41:00,47.5,44.7,29.93,North,360,0.0,1.0,90,0.00,,,0.13,WUHU216DAVISVP2,2013-10-28 04:41:00,
2013-10-27 21:46:00,47.5,44.7,29.93,North,360,0.0,0.0,90,0.00,,,0.13,WUHU216DAVISVP2,2013-10-28 04:46:00,
2013-10-27 21:51:00,47.4,44.6,29.93,North,360,0.0,0.0,90,0.00,,,0.13,WUHU216DAVISVP2,2013-10-28 04:51:00,
2013-10-27 21:56:00,47.3,44.5,29.93,North,360,0.0,0.0,90,0.00,,,0.13,WUHU216DAVISVP2,2013-10-28 04:56:00,
2013-10-27 22:01:00,47.0,44.2,29.93,North,360,0.0,0.0,90,0.00,,,0.13,WUHU216DAVISVP2,2013-10-28 05:01:00,
2013-10-27 22:06:00,46.7,43.9,29.93,North,360,0.0,0.0,90,0.00,,,0.13,WUHU216DAVISVP2,2013-10-28 05:06:00,
2013-10-27 22:11:00,46.5,44.0,29.93,North,360,0.0,0.0,91,0.00,,,0.13,WUHU216DAVISVP2,2013-10-28 05:11:00,
2013-10-27 22:16:00,46.6,44.1,29.93,North,360,0.0,0.0,91,0.00,,,0.13,WUHU216DAVISVP2,2013-10-28 05:16:00,
2013-10-27 22:21:00,46.5,44.0,29.93,North,360,0.0,0.0,91,0.00,,,0.13,WUHU216DAVISVP2,2013-10-28 05:21:00,
2013-10-27 22:26:00,46.4,43.9,29.93,North,360,0.0,0.0,91,0.00,,,0.13,WUHU216DAVISVP2,2013-10-28 05:26:00,
2013-10-27 22:31:00,46.1,43.6,29.93,North,360,0.0,1.0,91,0.00,,,0.13,WUHU216DAVISVP2,2013-10-28 05:31:00,
2013-10-27 22:36:00,46.0,43.5,29.93,North,360,0.0,1.0,91,0.00,,,0.13,WUHU216DAVISVP2,2013-10-28 05:36:00,
2013-10-27 22:41:00,45.8,43.3,29.93,North,360,0.0,0.0,91,0.00,,,0.13,WUHU216DAVISVP2,2013-10-28 05:41:00,
2013-10-27 22:46:00,45.6,43.1,29.93,North,360,0.0,0.0,91,0.00,,,0.13,WUHU216DAVISVP2,2013-10-28 05:46:00,
2013-10-27 22:51:00,45.2,42.7,29.93,North,360,0.0,0.0,91,0.00,,,0.13,WUHU216DAVISVP2,2013-10-28 05:51:00,
2013-10-27 22:56:00,45.0,42.8,29.93,North,360,0.0,0.0,92,0.00,,,0.13,WUHU216DAVISVP2,2013-10-28 05:56:00,
2013-10-27 23:01:00,44.9,42.7,29.92,North,360,0.0,0.0,92,0.00,,,0.13,WUHU216DAVISVP2,2013-10-28 06:01:00,
2013-10-27 23:06:00,44.7,42.5,29.92,North,360,0.0,0.0,92,0.00,,,0.13,WUHU216DAVISVP2,2013-10-28 06:06:00,
2013-10-27 23:11:00,44.6,42.4,29.92,North,360,0.0,0.0,92,0.00,,,0.13,WUHU216DAVISVP2,2013-10-28 06:11:00,
2013-10-27 23:16:00,44.4,42.2,29.92,North,360,0.0,0.0,92,0.00,,,0.13,WUHU216DAVISVP2,2013-10-28 06:16:00,
2013-10-27 23:21:00,44.2,42.0,29.92,North,360,0.0,0.0,92,0.00,,,0.13,WUHU216DAVISVP2,2013-10-28 06:21:00,
2013-10-27 23:26:00,43.8,41.6,29.92,North,360,0.0,1.0,92,0.00,,,0.13,WUHU216DAVISVP2,2013-10-28 06:26:00,
2013-10-27 23:31:00,43.6,41.4,29.92,North,360,0.0,1.0,92,0.00,,,0.13,WUHU216DAVISVP2,2013-10-28 06:31:00,
2013-10-27 23:36:00,43.6,41.7,29.92,North,360,0.0,3.0,93,0.00,,,0.13,WUHU216DAVISVP2,2013-10-28 06:36:00,
2013-10-27 23:41:00,43.6,41.7,29.92,North,360,0.0,3.0,93,0.00,,,0.13,WUHU216DAVISVP2,2013-10-28 06:41:00,
2013-10-27 23:46:00,43.8,41.9,29.92,North,360,0.0,0.0,93,0.00,,,0.13,WUHU216DAVISVP2,2013-10-28 06:46:00,
2013-10-27 23:51:00,44.0,42.3,29.92,North,360,0.0,2.0,94,0.00,,,0.13,WUHU216DAVISVP2,2013-10-28 06:51:00,
2013-10-27 23:56:00,44.1,42.4,29.92,North,360,0.0,2.0,94,0.00,,,0.13,WUHU216DAVISVP2,2013-10-28 06:56:00,